Weather History for Richmond, KY

Change the Weather History Date:

Thursday, November 10, 2011

  Actual Average (KLOZ) Record (KLOZ)
Temperature  
Mean Temperature 42 °F 50 °F  
Max Temperature 50 °F 61 °F 78 °F (2006)
Min Temperature 35 °F 38 °F 17 °F (1957)
Degree Days  
Heating Degree Days 22 16  
Month to date heating degree days 142  
Since 1 July heating degree days 448  
Cooling Degree Days 0 0  
Month to date cooling degree days 0  
Moisture  
Dew Point 29 °F    
Average Humidity 60    
Maximum Humidity 81    
Minimum Humidity 37    
Precipitation  
Precipitation 0.00 in 0.11 in 1.18 in (1987)
Month to date precipitation 1.13  
Sea Level Pressure  
Sea Level Pressure 30.08 in    
Wind  
Wind Speed 9 mph (West)    
Max Wind Speed 18 mph    
Max Gust Speed 26 mph    
Visibility 10 miles    
Events      
T = Trace of Precipitation, MM = Missing Value Source: NWS Daily Summary

Daily Weather History Graph

Daily Weather History Graph

Search for Another Location

Airport:

Trip Planner

Search our weather history database for the weather conditions in past years. The results will help you decide how hot, cold, wet, or windy it might be!

Date:

Astronomy

Nov. 10, 2011 Rise Set
Actual Time 7:11 AM EST 5:30 PM EST
Civil Twilight 6:43 AM EST 5:58 PM EST
Nautical Twilight 6:12 AM EST 6:29 PM EST
Astronomical Twilight 5:41 AM EST 7:00 PM EST
Moon 5:18 PM EST (11/10) 7:02 AM EST (11/10)
Length of Visible Light 11h 14m
Length of Day
10h 18m
Full, 100% of the Moon is Illuminated
Nov 10
Full
Nov 10
Full
Nov 18
Last Quarter
Nov 25
New
Dec 2
First Quarter

Hourly Weather History & Observations

Time (EST) Temp. Windchill Dew Point Humidity Pressure Visibility Wind Dir Wind Speed Gust Speed Precip Events Conditions
12:15 AM 42.8 °F 36.2 °F 33.8 °F 70% 30.11 in 10.0 mi WNW 12.7 mph 16.1 mph N/A   Overcast
12:35 AM 42.8 °F 37.5 °F 33.8 °F 70% 30.12 in 10.0 mi WNW 9.2 mph - N/A   Overcast
12:55 AM 42.8 °F 39.3 °F 33.8 °F 70% 30.12 in 10.0 mi WNW 5.8 mph - N/A   Overcast
1:15 AM 42.8 °F 38.0 °F 33.8 °F 70% 30.12 in 10.0 mi WNW 8.1 mph - N/A   Overcast
1:35 AM 42.8 °F 39.3 °F 33.8 °F 70% 30.11 in 10.0 mi WNW 5.8 mph - N/A   Overcast
1:55 AM 42.8 °F 40.1 °F 33.8 °F 70% 30.12 in 10.0 mi WNW 4.6 mph - N/A   Overcast
2:15 AM 42.8 °F 38.0 °F 33.8 °F 70% 30.12 in 10.0 mi WNW 8.1 mph - N/A   Overcast
2:35 AM 42.8 °F 39.3 °F 33.8 °F 70% 30.12 in 10.0 mi NW 5.8 mph - N/A   Overcast
2:55 AM 42.8 °F 38.6 °F 33.8 °F 70% 30.12 in 10.0 mi WNW 6.9 mph - N/A   Overcast
3:15 AM 41.0 °F 37.1 °F 33.8 °F 76% 30.11 in 10.0 mi WNW 5.8 mph - N/A   Overcast
3:35 AM 41.0 °F 36.4 °F 33.8 °F 76% 30.11 in 10.0 mi WNW 6.9 mph - N/A   Overcast
3:55 AM 41.0 °F 37.1 °F 33.8 °F 76% 30.11 in 10.0 mi WNW 5.8 mph - N/A   Overcast
4:15 AM 41.0 °F 37.1 °F 33.8 °F 76% 30.12 in 10.0 mi WNW 5.8 mph - N/A   Overcast
4:55 AM 41.0 °F 37.1 °F 33.8 °F 76% 30.11 in 10.0 mi WNW 5.8 mph - N/A   Overcast
5:15 AM 41.0 °F 37.1 °F 33.8 °F 76% 30.11 in 10.0 mi WNW 5.8 mph - N/A   Overcast
5:55 AM 39.2 °F 37.0 °F 33.8 °F 81% 30.12 in 10.0 mi West 3.5 mph - N/A   Overcast
6:15 AM 39.2 °F 35.9 °F 32.0 °F 75% 30.12 in 10.0 mi West 4.6 mph - N/A   Overcast
6:35 AM 37.4 °F 33.8 °F 32.0 °F 81% 30.11 in 10.0 mi West 4.6 mph - N/A   Scattered Clouds
7:15 AM 37.4 °F 33.8 °F 32.0 °F 81% 30.12 in 10.0 mi SW 4.6 mph - N/A   Clear
7:55 AM 37.4 °F 33.8 °F 32.0 °F 81% 30.12 in 10.0 mi SW 4.6 mph - N/A   Clear
8:15 AM 37.4 °F 33.8 °F 32.0 °F 81% 30.12 in 10.0 mi SW 4.6 mph - N/A   Clear
8:35 AM 37.4 °F 32.8 °F 32.0 °F 81% 30.12 in 10.0 mi SSW 5.8 mph - N/A   Clear
8:55 AM 39.2 °F 35.9 °F 33.8 °F 81% 30.12 in 10.0 mi SSW 4.6 mph - N/A   Clear
9:15 AM 41.0 °F 38.0 °F 33.8 °F 76% 30.12 in 10.0 mi SSW 4.6 mph - N/A   Clear
9:35 AM 42.8 °F 38.6 °F 33.8 °F 70% 30.11 in 10.0 mi West 6.9 mph - N/A   Clear
9:55 AM 42.8 °F 38.6 °F 32.0 °F 66% 30.11 in 10.0 mi WSW 6.9 mph - N/A   Clear
10:15 AM 44.6 °F 39.7 °F 32.0 °F 61% 30.10 in 10.0 mi West 9.2 mph - N/A   Clear
10:35 AM 44.6 °F 41.4 °F 32.0 °F 61% 30.10 in 10.0 mi WSW 5.8 mph - N/A   Clear
10:55 AM 46.4 °F 44.3 °F 30.2 °F 53% 30.10 in 10.0 mi WSW 4.6 mph - N/A   Clear
11:15 AM 46.4 °F 42.4 °F 30.2 °F 53% 30.09 in 10.0 mi WSW 8.1 mph - N/A   Clear
11:35 AM 48.2 °F - 30.2 °F 50% 30.08 in 10.0 mi West 8.1 mph - N/A   Clear
11:55 AM 48.2 °F - 30.2 °F 50% 30.08 in 10.0 mi WSW 11.5 mph 17.3 mph N/A   Clear
12:15 PM 48.2 °F - 30.2 °F 50% 30.07 in 10.0 mi WSW 11.5 mph 17.3 mph N/A   Clear
12:35 PM 50.0 °F - 30.2 °F 47% 30.05 in 10.0 mi West 9.2 mph 20.7 mph N/A   Scattered Clouds
12:55 PM 50.0 °F - 28.4 °F 43% 30.04 in 10.0 mi WSW 16.1 mph 21.9 mph N/A   Scattered Clouds
1:15 PM 50.0 °F - 28.4 °F 43% 30.03 in 10.0 mi WSW 13.8 mph 18.4 mph N/A   Mostly Cloudy
1:35 PM 46.4 °F 40.4 °F 24.8 °F 43% 30.02 in 10.0 mi West 13.8 mph 20.7 mph N/A   Scattered Clouds
1:55 PM 50.0 °F - 24.8 °F 37% 30.01 in 10.0 mi West 12.7 mph 20.7 mph N/A   Scattered Clouds
2:15 PM 48.2 °F - 26.6 °F 43% 30.01 in 10.0 mi West 15.0 mph 19.6 mph N/A   Mostly Cloudy
2:35 PM 48.2 °F - 28.4 °F 46% 30.01 in 10.0 mi West 13.8 mph 19.6 mph N/A   Overcast
2:55 PM 46.4 °F 40.1 °F 26.6 °F 46% 30.01 in 10.0 mi West 15.0 mph 20.7 mph N/A   Mostly Cloudy
3:15 PM 46.4 °F 39.8 °F 24.8 °F 43% 30.00 in 10.0 mi West 16.1 mph 21.9 mph N/A   Mostly Cloudy
3:35 PM 46.4 °F 39.2 °F 23.0 °F 40% 30.01 in 10.0 mi WNW 18.4 mph 24.2 mph N/A   Mostly Cloudy
3:55 PM 44.6 °F 37.2 °F 24.8 °F 46% 30.01 in 10.0 mi WNW 17.3 mph 23.0 mph N/A   Mostly Cloudy
4:15 PM 44.6 °F 37.2 °F 24.8 °F 46% 30.02 in 10.0 mi WNW 17.3 mph 23.0 mph N/A   Overcast
4:35 PM 44.6 °F 36.9 °F 23.0 °F 43% 30.02 in 10.0 mi WNW 18.4 mph 23.0 mph N/A   Overcast
4:55 PM 44.6 °F 36.9 °F 21.2 °F 39% 30.03 in 10.0 mi WNW 18.4 mph 26.5 mph N/A   Overcast
5:35 PM 42.8 °F 36.2 °F 19.4 °F 39% 30.04 in 10.0 mi West 12.7 mph 20.7 mph N/A   Scattered Clouds
5:55 PM 41.0 °F 34.7 °F 19.4 °F 42% 30.04 in 10.0 mi West 10.4 mph 19.6 mph N/A   Scattered Clouds
6:15 PM 39.2 °F 34.2 °F 21.2 °F 49% 30.05 in 10.0 mi West 6.9 mph - N/A   Scattered Clouds
6:35 PM 39.2 °F 33.6 °F 21.2 °F 49% 30.06 in 10.0 mi West 8.1 mph - N/A   Clear
6:55 PM 37.4 °F 31.4 °F 21.2 °F 52% 30.06 in 10.0 mi West 8.1 mph - N/A   Clear
7:15 PM 37.4 °F 32.1 °F 21.2 °F 52% 30.07 in 10.0 mi West 6.9 mph - N/A   Clear
7:35 PM 37.4 °F 30.8 °F 23.0 °F 56% 30.08 in 10.0 mi West 9.2 mph - N/A   Clear
7:55 PM 35.6 °F 29.9 °F 23.0 °F 60% 30.08 in 10.0 mi West 6.9 mph - N/A   Clear
8:15 PM 35.6 °F 29.9 °F 23.0 °F 60% 30.08 in 10.0 mi West 6.9 mph - N/A   Clear
8:35 PM 35.6 °F 29.9 °F 23.0 °F 60% 30.08 in 10.0 mi West 6.9 mph - N/A   Scattered Clouds
9:15 PM 35.6 °F 29.9 °F 23.0 °F 60% 30.09 in 10.0 mi WSW 6.9 mph - N/A   Clear
9:35 PM 35.6 °F 30.7 °F 23.0 °F 60% 30.09 in 10.0 mi WSW 5.8 mph - N/A   Mostly Cloudy
9:55 PM 35.6 °F 29.9 °F 23.0 °F 60% 30.09 in 10.0 mi WSW 6.9 mph - N/A   Overcast
10:15 PM 35.6 °F 29.9 °F 24.8 °F 65% 30.09 in 10.0 mi WSW 6.9 mph - N/A   Overcast
10:35 PM 37.4 °F 31.4 °F 24.8 °F 60% 30.09 in 10.0 mi WSW 8.1 mph - N/A   Overcast
10:55 PM 37.4 °F 32.1 °F 24.8 °F 60% 30.09 in 10.0 mi WSW 6.9 mph - N/A   Overcast
11:15 PM 37.4 °F 31.4 °F 24.8 °F 60% 30.09 in 10.0 mi WSW 8.1 mph - N/A   Overcast
11:35 PM 37.4 °F 31.4 °F 24.8 °F 60% 30.09 in 10.0 mi West 8.1 mph - N/A   Overcast
11:55 PM 35.6 °F 30.7 °F 26.6 °F 70% 30.09 in 10.0 mi West 5.8 mph - N/A   Overcast